Location: ????
(30.2663°N, 31.2484°E)
Time: 16:43:10
(UTC+00:00)

CZ-2C R/B - Pass Details

Date: 26 March 2023
Orbit: 784 x 869 km, 98.3° (Epoch: 04 June)

Event Time Altitude Azimuth Distance (km) Brightness Sun altitude
Exits shadow 00:35:29 22° 73° (ENE) 1,801 4.8 -41.0°
Maximum altitude 00:35:47 22° 69° (ENE) 1,797 4.8 -41.0°
Drops below altitude 10° 00:39:58 10° 20° (NNE) 2,506 5.6 -40.2°
Sets 00:42:49 0° 6° (N) 3,436 6.3 -39.7°
